Find Shikongxing 01

NORAD ID: 65712 Int'l Des: 2025-214 Owner: PKU Country: CN operational
LEOCIRCULAR

Aktuelle Ansicht

3D-Globus wird geladen...

Über Shikongxing 01

Beschreibung wird geladen...

Nächste Überflüge

Passes for default location (London). Set your location on the main map for personalized predictions.

Höhenverlauf

Loading altitude history...

Zweizeiliger Elementsatz

1 65712U 25214A 26150.05382198 .00003327 00000-0 34159-3 0 9995
2 65712 49.9871 19.2838 0013180 178.2949 181.8041 14.92742757 36993
Epoch: 30. Mai 2026 • Age: 7 hours

Aktueller Status

Höhe 593.0 km
Geschwindigkeit 7.57 km/s
Subsatellitenpunkt -33.07°S, 147.95°W
Startdatum 24. Sept. 2025
Alter 0.6 years
Typ other

Technische Details

Klassifizierung Payload
Masse 40.00 kg
Trockenmasse 40.00 kg
Gesamtmasse 40.00 kg
Länge 0.50 m
Durchmesser 0.50 m
Spannweite 0.50 m
Form Box
Hersteller SDK
Bus-Typ GPS50
Phasenstatus In Orbit
Besitzer/Staat PKU/CN

Most Searched